User: anonymous   Login
Location: Roland
(31.1349°N, 85.4372°W)
Time: 08:22:46
(UTC+00:00)
Language:

Courier 1B Rocket - Orbit

View from above orbital plane
View from above orbital plane
View from above satellite
View from above satellite

Ground track
Ground track

The orbit data is extracted from the following two-line orbital elements,

1 00059U 60013B   21108.86049322  .00000098  00000-0  13778-4 0  9997
2 00059  28.2487  89.3867 0189050 329.5832  29.3863 13.52983734987755
Epoch (UTC): 18 April 2021 20:39:06
Eccentricity: 0.0189050
inclination: 28.2487°
perigee height: 920 km
apogee height: 1202 km
right ascension of ascending node: 89.3867°
argument of perigee: 329.5832°
revolutions per day: 13.52983734
mean anomaly at epoch: 29.3863°
orbit number at epoch: 98775

The dashed part of the orbit path shows where the satellite is in the earth's shadow,  

DLR